This demonstration page uses our WeatherBlox Daily Observations layout. Learn more.

Left ArrowRight Arrow

44.8408, -93.29828

Hourly Observations for July 24, 2021

Temp ( °F °C ) Dew Point ( °F °C ) Humidity (%) Winds ( mph kmh ) Pressure ( in mb ) Visibility ( mi km ) Precip ( " mm )
12:53 am 00:53 Cloudy 84 28.9 72 22.2 67 67 SW 13 20 29.78 1008 10 16 0.00 0.00
1:53 am 01:53 Mostly Cloudy 82 27.8 73 22.8 74 74 SW 16 26 29.77 1008 9 14 0.00 0.00
2:53 am 02:53 Cloudy with Light Rain 78 25.6 75 23.9 90 90 WSW 10 17 29.77 1008 7 11 0.00 0.00
3:12 am 03:12 Cloudy with Nearby Thunderstorms 78 25.6 75 23.9 90 90 W 9 15 29.77 1008 7 11 0.01 0.25
3:27 am 03:27 Cloudy with Light Rain 78 25.6 75 23.9 90 90 WSW 10 17 29.78 1008 6 10 0.01 0.25
3:53 am 03:53 Cloudy with Light Rain 77 25 75 23.9 94 94 W 9 15 29.80 1009 6 10 0.01 0.25
4:53 am 04:53 Cloudy 76 24.4 69 20.6 79 79 NW 15 24 29.81 1010 10 16 0.01 0.25
5:53 am 05:53 Cloudy 75 23.9 69 20.6 82 82 Calm 29.79 1009 10 16 0.00 0.00
6:53 am 06:53 Mostly Cloudy 74 23.3 69 20.6 85 85 WNW 6 9 29.83 1010 10 16 0.00 0.00
7:26 am 07:26 Mostly Cloudy 75 23.9 69 20.6 82 82 WNW 5 7 29.84 1010 10 16 0.00 0.00
7:53 am 07:53 Mostly Cloudy 74 23.3 68 20 82 82 NW 9 15 29.86 1011 10 16 0.00 0.00
8:30 am 08:30 Partly Cloudy 76 24.4 67 19.4 74 74 NW 6 9 29.83 1010 10 16 0.00 0.00
8:53 am 08:53 Partly Cloudy 78 25.6 67 19.4 69 69 NNW 5 7 29.85 1011 10 16 0.00 0.00
9:53 am 09:53 Partly Cloudy 80 26.7 67 19.4 64 64 NNW 8 13 29.87 1012 10 16 0.00 0.00
10:53 am 10:53 Mostly Sunny 84 28.9 65 18.3 53 53 N 9 15 29.87 1012 10 16 0.00 0.00
11:53 am 11:53 Mostly Sunny 85 29.4 65 18.3 51 51 NW 10 17 29.88 1012 10 16 0.00 0.00
12:53 pm 12:53 Mostly Sunny 88 31.1 66 18.9 48 48 NNW 13 20 29.87 1012 10 16 0.00 0.00
1:53 pm 13:53 Mostly Sunny 90 32.2 65 18.3 44 44 WNW 15 24 29.87 1012 10 16 0.00 0.00
2:53 pm 14:53 Mostly Sunny 92 33.3 59 15 33 33 WNW 13 20 29.87 1012 9 14 0.00 0.00
3:53 pm 15:53 Mostly Sunny 93 33.9 52 11.1 25 25 WNW 15 24 29.88 1012 9 14 0.00 0.00
4:53 pm 16:53 Mostly Sunny 92 33.3 47 8.3 21 21 NW 17 28 29.88 1012 8 13 0.00 0.00
5:53 pm 17:53 Sunny 90 32.2 45 7.2 21 21 NNW 15 24 29.88 1012 8 13 0.00 0.00
6:53 pm 18:53 Sunny 89 31.7 45 7.2 22 22 NW 15 24 29.88 1012 8 13 0.00 0.00
7:53 pm 19:53 Sunny 85 29.4 45 7.2 25 25 NW 12 19 29.88 1012 8 13 0.00 0.00
8:53 pm 20:53 Clear 81 27.2 47 8.3 30 30 W 6 9 29.88 1012 8 13 0.00 0.00
9:53 pm 21:53 Clear 78 25.6 48 8.9 35 35 WNW 5 7 29.90 1013 10 16 0.00 0.00
10:53 pm 22:53 Clear 75 23.9 50 10 41 41 W 5 7 29.91 1013 9 14 0.00 0.00
11:53 pm 23:53 Clear 76 24.4 52 11.1 43 43 WNW 6 9 29.91 1013 10 16 0.00 0.00

Powered by AerisWeather